RH
41 45 52 56 56 54 53 54 56 58 59 59 60 58 54 52 53 54 54 53 52 49 49 50 54 59 63 64 59 50 49 53 50 46 37 24 18 13 7 4 5 4 4 3 3 2 2 2 2 2 2 2
47 52 56 60 61 60 60 61 62 62 63 62 61 57 53 52 53 54 53 52 51 49 48 47 50 55 61 67 66 56 49 49 48 44 36 24 18 14 8 5 5 4 4 3 3 2 2 2 2 2 2 2
55 59 62 64 66 67 68 67 67 67 66 63 59 55 53 54 54 53 51 50 50 48 47 46 46 49 54 62 71 69 58 52 49 44 35 26 21 15 9 6 5 4 4 3 2 2 2 2 2 2 2 2
65 66 67 67 69 72 73 72 71 70 66 61 56 55 55 54 53 50 49 48 47 46 45 45 46 49 52 59 73 77 66 55 48 42 33 26 23 16 10 6 6 5 4 3 2 2 2 2 2 2 2 2
72 71 71 71 73 75 76 75 72 68 62 57 55 55 55 53 50 48 47 46 46 45 44 45 46 49 53 57 65 69 61 50 41 34 28 26 24 16 10 7 6 5 4 3 2 2 2 2 2 2 2 2
78 77 77 77 77 77 76 73 69 64 60 57 56 54 53 51 49 47 47 46 44 42 41 40 40 42 46 49 54 54 49 42 34 27 24 26 25 17 11 8 6 5 4 3 2 2 2 2 2 2 2 2
83 82 82 82 80 78 74 70 66 63 61 57 54 52 51 50 48 47 45 42 40 37 35 32 32 32 35 40 43 40 36 32 27 23 23 26 25 19 13 9 7 6 4 4 2 2 2 2 2 2 2 2
86 85 84 83 80 78 74 71 69 66 63 58 53 50 50 49 48 46 42 37 35 34 34 33 32 33 34 37 37 34 31 27 23 22 22 25 24 19 14 10 8 6 5 4 3 2 2 2 2 2 2 2
88 87 85 84 81 79 78 76 73 70 65 58 52 50 50 50 49 45 40 35 34 34 35 36 37 37 39 40 39 37 35 31 26 23 21 22 22 19 15 11 9 7 5 4 3 2 2 2 2 2 3 2
82 86 86 85 84 81 80 78 74 70 64 58 54 53 53 52 49 44 40 37 36 37 38 39 40 42 44 46 46 44 43 40 35 28 22 21 21 19 16 13 10 8 6 4 3 3 2 2 2 2 3 3
61 75 81 82 82 81 79 76 72 67 63 60 59 58 57 53 49 44 41 40 41 42 43 44 44 46 48 51 52 49 48 47 43 36 27 22 20 19 17 14 12 10 7 5 3 3 2 2 2 3 3 3
37 52 67 75 77 78 78 76 73 70 67 67 66 64 60 55 51 47 45 44 45 46 47 48 48 50 52 54 55 53 51 51 48 43 35 26 21 20 18 15 13 11 8 6 4 3 2 2 2 2 3 3
27 32 46 62 72 75 77 78 77 76 75 74 73 69 64 59 55 51 49 48 49 50 50 51 51 54 56 58 59 57 55 55 53 50 44 34 26 22 20 17 14 12 10 7 5 4 3 3 2 3 3 3
26 25 29 41 55 66 72 77 79 81 82 81 79 74 69 63 59 55 52 52 53 54 55 55 56 58 60 62 62 61 60 58 58 56 51 43 32 26 23 21 17 14 11 9 6 5 3 3 2 3 3 3
26 25 25 27 36 47 56 64 72 77 81 82 81 79 75 69 64 60 57 56 57 58 59 59 61 62 64 66 64 63 64 63 62 61 57 50 40 31 28 24 20 17 13 10 7 6 4 3 3 3 3 3
26 25 25 26 27 32 38 46 56 65 71 76 82 84 82 77 71 67 64 62 61 62 63 63 65 65 66 67 65 65 66 67 67 65 61 56 46 36 33 29 24 20 16 13 9 6 5 3 3 3 3 3
26 26 25 26 27 28 31 34 42 52 59 66 76 83 87 85 80 74 71 68 66 67 68 68 67 67 67 66 65 67 68 70 70 68 66 62 53 44 39 36 30 24 20 15 11 8 6 4 3 3 3 3
24 25 25 25 26 27 28 31 36 43 49 55 64 75 85 90 89 84 79 75 72 72 73 74 72 71 69 66 66 68 69 71 72 71 71 67 61 53 47 44 37 29 24 19 14 10 7 5 3 3 3 3
22 22 22 23 24 24 26 28 33 38 45 50 55 63 77 89 94 91 87 84 80 79 78 78 78 76 72 69 68 70 70 72 73 74 74 71 67 60 54 51 45 35 28 23 18 13 9 6 4 3 3 3
24 23 21 21 21 21 23 26 31 37 45 53 56 58 70 87 98 96 92 93 89 84 82 81 82 80 76 73 71 71 72 73 74 75 76 74 71 66 61 57 52 42 34 26 20 15 11 7 5 4 3 3
28 26 24 23 22 22 24 26 31 36 44 55 61 62 66 77 91 96 93 95 96 91 85 83 84 82 78 76 75 74 74 75 76 77 78 77 73 70 68 64 58 49 40 31 24 18 13 9 6 4 3 3
27 26 25 24 24 25 26 28 32 35 41 51 58 63 65 69 81 93 93 94 98 97 92 89 88 87 83 81 79 78 77 77 78 78 79 79 75 71 69 66 60 53 44 35 28 23 16 10 8 5 4 3
26 25 24 23 24 24 26 29 31 35 41 48 57 64 70 73 77 86 95 98 99 100 98 96 95 92 90 87 85 84 82 81 81 80 80 80 77 72 69 66 62 55 47 37 31 26 19 13 10 7 5 4
26 25 24 23 23 24 25 29 33 38 45 52 62 70 77 84 86 87 95 99 100 100 100 100 99 97 95 92 91 90 88 85 83 82 81 80 78 74 72 70 65 59 49 39 32 27 22 17 14 10 7 5
27 26 25 23 23 24 24 27 33 39 46 53 61 69 77 87 94 95 97 98 98 100 100 100 100 100 98 96 95 95 92 88 84 82 82 81 79 76 73 70 67 60 51 41 34 29 25 22 18 14 10 7
27 26 25 23 22 23 23 24 27 31 37 44 50 57 65 74 83 90 93 95 97 99 100 100 100 100 98 96 95 95 92 89 86 84 83 82 79 77 73 69 66 60 51 43 37 31 27 25 23 19 16 12
23 24 24 23 22 22 23 23 24 26 29 34 37 41 47 55 64 72 78 82 87 91 95 97 98 98 96 94 93 92 90 89 86 84 84 82 78 74 71 68 66 62 53 45 40 35 31 28 26 23 20 17
17 21 23 23 23 23 24 24 25 27 28 28 29 30 33 38 44 49 55 63 70 77 83 87 90 92 93 92 91 90 88 87 85 84 83 81 76 71 68 67 67 64 57 49 42 38 35 31 29 28 24 20
14 18 20 21 21 21 22 23 25 26 28 28 28 28 29 31 32 34 37 42 49 57 66 73 79 83 86 87 87 86 85 84 83 82 81 78 74 70 68 66 65 64 59 53 47 42 38 34 31 31 28 24
12 13 15 15 15 15 15 16 18 21 24 25 26 28 30 31 32 33 34 35 37 40 46 53 60 67 73 77 79 80 80 81 81 80 78 75 73 72 70 66 63 62 61 56 51 47 43 38 34 33 30 28
10 10 11 11 11 11 11 12 12 14 16 18 19 21 23 26 29 31 34 36 38 39 40 42 45 51 57 62 66 69 72 75 76 76 75 74 73 72 72 69 64 63 63 59 54 51 48 45 41 37 33 31
Wind_Speed
24 24 23 23 23 24 24 23 23 22 22 21 20 21 20 20 21 21 22 22 23 23 24 24 23 23 23 22 22 21 20 20 20 20 19 18 17 16 15 15 15 15 15 16 16 16 16 15 15 15 15 15
24 24 24 24 24 24 24 23 22 22 22 21 21 21 21 21 22 22 23 23 23 24 24 24 24 23 23 23 22 22 21 21 20 20 19 18 17 16 15 15 16 16 16 16 17 17 17 16 16 16 16 16
24 24 24 24 24 23 23 22 22 22 22 21 21 21 22 22 23 23 23 24 24 24 25 25 24 24 24 23 22 22 22 22 21 21 20 18 17 16 16 16 16 16 17 17 17 18 17 17 17 17 17 17
23 24 24 24 24 23 23 23 23 23 22 21 21 22 23 23 23 23 23 24 24 24 25 25 24 24 23 23 23 22 22 22 22 21 20 18 17 16 15 16 17 17 17 18 18 18 18 18 18 18 18 18
22 23 23 24 24 24 23 23 23 22 21 21 22 23 23 23 23 23 24 24 25 25 24 24 24 23 22 22 22 22 23 23 23 22 20 19 17 16 16 17 17 17 18 19 19 19 19 19 19 19 19 19
22 23 23 23 24 24 24 22 22 22 22 22 23 24 24 24 24 24 24 25 25 24 24 23 23 22 22 22 22 22 23 23 23 22 20 19 19 18 18 18 18 18 19 19 20 20 20 20 20 20 19 19
22 23 23 24 24 24 24 23 22 22 23 23 24 24 25 25 25 25 25 25 25 24 24 23 23 22 22 22 22 23 23 23 23 21 21 20 19 19 19 19 19 19 20 20 21 21 21 21 21 21 20 20
23 23 24 24 25 25 24 24 24 24 24 24 25 25 26 26 26 26 26 25 25 24 23 23 23 22 22 22 23 23 23 22 22 21 21 20 20 19 19 20 20 20 21 21 22 22 22 22 22 22 22 22
23 24 25 25 26 26 26 26 25 25 25 25 26 26 27 26 26 26 26 26 25 24 23 23 22 22 22 22 22 22 23 22 22 21 21 21 21 20 20 21 21 21 22 22 23 23 23 23 24 23 24 23
24 24 25 26 27 27 26 26 26 26 26 26 27 27 27 27 27 27 26 26 25 24 24 23 22 22 22 22 22 23 23 22 22 22 22 22 21 21 21 22 22 22 23 23 24 24 25 25 25 25 25 25
25 25 26 27 28 28 28 27 27 26 26 27 27 28 27 27 27 26 26 26 25 24 24 23 23 23 22 22 23 23 23 23 23 23 22 22 22 22 22 22 23 23 24 24 25 26 26 26 27 27 27 27
25 26 27 28 29 29 29 29 28 28 27 28 28 28 28 27 27 27 27 26 26 26 25 24 24 23 23 23 23 24 24 24 24 24 23 23 23 23 23 24 24 24 25 25 26 27 27 27 28 28 28 28
26 26 27 28 30 30 31 30 30 30 30 30 30 30 29 28 28 28 28 28 28 27 27 26 25 24 24 24 24 25 25 26 26 25 25 24 24 24 25 25 25 25 26 26 27 27 28 28 29 29 29 30
28 28 28 29 30 31 32 32 32 32 32 32 32 31 31 30 30 30 30 30 29 28 28 27 26 25 25 25 26 26 26 27 27 26 26 26 25 25 26 26 26 26 27 27 27 28 28 29 29 30 30 30
29 29 30 30 31 32 33 33 34 34 34 34 34 33 33 32 32 32 32 31 31 30 29 28 27 27 27 27 27 27 27 27 27 27 27 27 27 27 27 27 27 27 27 28 29 29 29 30 30 30 31 31
31 31 31 31 32 33 34 35 35 36 36 36 36 36 35 34 33 33 33 33 32 31 31 30 29 29 29 29 29 29 28 28 28 28 29 28 28 28 28 28 28 28 28 29 30 30 31 31 31 32 32 32
32 32 32 33 33 34 34 35 36 37 38 38 38 37 37 36 35 35 35 34 33 32 32 32 31 31 31 31 31 30 30 29 29 29 30 30 29 29 29 29 29 30 30 30 30 31 32 32 32 32 33 33
33 33 33 34 34 35 35 36 37 38 39 40 40 39 38 37 36 36 36 35 34 33 33 32 32 32 32 33 33 32 31 31 31 31 31 31 31 31 30 30 30 31 31 31 31 32 33 33 33 33 33 33
33 34 34 35 35 36 37 37 38 39 40 40 41 40 39 38 37 36 36 36 36 35 34 33 33 33 34 35 34 34 33 33 32 32 32 33 33 32 32 32 32 32 32 32 33 33 33 34 34 34 34 34
34 34 35 36 36 37 38 38 38 39 39 40 40 40 39 38 37 36 37 37 37 36 35 35 35 35 35 36 36 36 35 35 35 34 34 34 34 34 34 33 33 33 33 33 33 34 34 34 35 35 35 35
35 36 36 37 37 37 38 38 38 39 39 39 39 39 39 38 37 37 37 39 39 38 37 37 37 37 38 38 38 38 37 37 36 36 35 35 35 35 35 35 35 34 34 34 35 35 35 35 35 35 35 36
35 36 36 37 37 38 38 39 39 39 39 40 40 40 40 39 39 38 38 39 40 40 39 39 38 38 39 40 40 40 39 38 38 37 36 36 37 38 38 38 37 36 36 36 36 37 36 36 36 36 36 37
34 34 35 36 37 38 39 39 40 40 40 40 40 40 40 40 39 39 39 40 41 41 40 40 39 39 40 41 41 41 40 39 39 39 39 39 39 40 40 40 39 38 38 38 38 38 38 37 37 37 38 38
35 35 35 36 37 38 38 39 40 40 39 39 39 39 39 39 39 40 41 41 42 42 42 41 40 40 41 41 42 42 41 41 40 40 40 40 41 42 42 41 40 40 40 40 41 40 39 39 39 39 39 39
34 35 36 36 37 38 38 39 39 39 39 39 39 39 38 39 39 40 41 43 44 44 44 44 43 42 42 43 43 43 43 42 42 42 41 42 42 42 43 43 42 41 42 42 42 41 41 41 41 41 40 40
31 33 34 35 36 37 38 38 39 39 39 39 39 40 40 40 40 40 42 43 45 46 47 47 47 46 46 46 46 46 46 46 45 44 43 43 44 44 45 44 43 43 43 44 44 43 44 44 43 43 43 42
31 32 33 34 35 36 37 38 38 39 39 39 40 40 41 41 41 42 43 44 45 46 47 48 48 49 49 49 50 50 50 49 48 47 46 46 46 46 47 46 45 44 44 45 45 45 47 47 46 46 45 44
31 30 31 32 33 33 34 34 36 37 37 38 39 40 40 41 41 42 43 44 45 46 47 48 49 49 50 50 51 51 51 51 51 50 49 49 49 49 49 48 47 46 46 46 46 47 48 48 49 49 47 45
28 27 27 28 29 29 29 30 31 33 34 36 37 38 39 40 40 41 42 43 44 46 47 48 49 49 50 51 51 52 52 53 52 52 51 51 51 51 51 51 50 49 49 48 47 48 49 49 50 51 49 48
23 22 22 23 24 25 25 26 26 28 29 31 32 34 36 37 39 40 41 42 43 44 45 46 48 49 50 51 52 52 53 53 53 53 53 53 52 52 52 53 53 52 50 49 49 50 50 50 51 51 51 51
19 20 20 20 21 22 22 23 23 24 25 26 28 29 31 33 35 37 39 40 42 43 44 45 46 47 48 50 51 51 52 53 53 53 53 53 53 52 52 53 54 53 51 51 51 51 51 52 52 53 53 53
Wind_Direction
257 253 246 242 240 238 238 238 239 242 244 246 249 252 254 256 259 262 265 268 270 272 274 277 280 282 284 285 287 289 287 283 284 286 288 289 287 284 279 277 278 279 280 280 279 278 276 274 273 271 270 269
256 252 246 241 239 239 240 241 243 245 247 249 251 253 254 256 258 261 264 267 269 272 275 278 280 281 282 283 284 287 286 285 287 290 292 292 291 287 282 279 279 280 281 280 279 278 276 275 274 273 272 272
255 252 248 244 241 241 243 244 245 247 249 250 251 252 253 255 257 260 263 267 270 273 276 278 279 280 281 281 282 284 286 288 290 293 295 295 293 289 285 282 281 281 281 281 280 278 277 276 275 274 274 274
253 251 249 246 244 243 243 244 245 247 249 250 250 251 253 256 258 261 265 268 270 273 275 277 279 280 282 283 283 284 286 288 290 293 294 293 291 288 285 282 281 281 281 281 280 279 277 276 275 274 275 275
252 251 248 247 245 244 244 244 246 248 248 249 251 253 256 258 260 263 265 267 269 272 274 277 279 280 282 283 283 283 285 288 290 292 293 291 287 284 282 280 279 279 279 279 279 278 277 275 275 275 275 276
251 250 249 247 246 246 246 246 247 248 249 250 252 255 257 258 260 262 265 267 269 271 273 275 276 277 279 281 282 283 285 288 290 291 290 287 284 284 283 280 279 279 278 278 277 277 276 275 275 275 275 276
251 250 250 249 249 248 247 247 248 248 250 252 254 255 256 258 260 262 264 266 267 269 271 272 273 275 276 278 279 282 284 287 290 290 287 284 283 284 283 281 280 280 279 279 279 277 276 275 275 275 275 275
253 251 251 251 251 250 249 248 249 250 251 251 253 254 255 257 259 261 262 262 263 265 267 269 271 272 273 274 277 280 283 286 288 287 285 283 283 282 281 280 280 280 280 280 279 279 278 277 276 275 274 274
256 254 253 253 252 251 251 251 251 252 251 251 251 253 255 257 259 259 260 259 260 261 264 266 268 270 271 273 277 280 283 285 287 286 285 283 282 280 279 279 279 279 279 279 279 278 277 277 276 275 274 273
256 255 255 255 255 254 254 253 253 252 252 251 251 253 256 257 258 259 258 259 260 261 263 264 266 267 269 272 276 279 282 285 287 287 285 284 282 280 279 278 279 279 279 279 278 277 276 276 275 274 273 272
253 253 253 254 256 256 255 255 253 253 253 254 255 256 257 258 258 258 258 259 260 262 263 263 264 266 268 271 274 277 280 283 285 285 285 284 282 280 278 277 277 278 278 278 278 277 276 275 274 273 273 272
251 250 249 250 252 253 254 253 252 252 253 255 257 258 258 258 258 258 258 258 259 260 261 262 262 263 266 268 271 274 277 280 281 283 284 283 281 279 277 276 275 276 276 276 277 276 276 276 275 274 274 273
249 248 247 248 249 251 252 252 252 252 252 253 255 256 257 257 257 257 257 257 257 258 259 259 260 261 263 265 268 271 273 276 278 280 282 282 281 279 276 275 274 274 274 275 275 275 276 276 275 275 274 273
247 247 247 247 248 249 251 252 252 252 252 253 254 255 255 255 255 255 255 255 255 255 256 256 257 258 260 262 264 267 270 273 275 278 280 281 281 279 276 275 274 273 274 274 274 274 274 274 274 274 273 272
246 246 246 247 247 248 249 250 251 252 252 252 253 253 253 252 252 253 253 253 253 253 253 253 254 255 256 259 261 263 266 269 273 275 277 279 280 278 276 274 273 272 272 273 273 273 272 272 272 272 272 271
247 247 246 247 247 247 247 248 249 250 250 251 251 250 250 249 249 250 251 251 251 252 252 252 252 253 255 257 258 260 263 266 269 272 274 277 277 277 275 274 272 271 271 271 271 271 271 271 271 270 270 269
247 247 247 247 247 248 248 248 248 248 249 249 249 249 248 248 248 249 250 250 250 251 251 252 252 253 254 255 256 258 260 263 266 268 271 274 275 274 273 272 271 270 269 269 269 269 270 270 269 269 269 268
248 248 248 249 249 249 250 249 249 249 249 249 248 249 248 248 247 248 250 251 251 250 251 251 251 252 252 253 255 256 258 261 263 265 268 270 271 272 271 271 270 269 268 268 267 267 268 268 268 268 268 268
250 250 250 251 251 251 251 251 250 250 250 250 249 249 249 249 248 248 250 252 252 251 251 251 251 251 252 253 255 256 258 259 261 263 265 267 269 270 269 269 268 268 268 267 267 267 267 267 267 268 267 267
253 253 253 252 252 251 251 251 251 251 251 251 252 251 250 249 249 249 250 252 253 252 252 253 252 252 253 255 256 257 257 259 260 261 262 264 266 267 267 266 266 266 267 266 266 266 265 265 266 266 267 266
255 254 254 253 253 252 252 252 252 252 252 252 253 253 252 250 249 249 250 251 253 252 252 252 252 252 254 255 256 256 257 257 258 259 261 262 264 264 264 264 264 264 264 264 263 263 263 264 264 264 265 265
258 256 255 254 253 253 253 253 253 253 253 253 253 253 252 251 249 249 249 250 251 251 251 251 250 251 252 254 255 255 256 257 257 259 260 260 261 261 261 261 261 261 261 261 261 261 262 262 262 263 262 262
263 260 258 256 255 254 254 253 254 254 254 255 255 254 254 253 251 249 249 249 250 250 250 249 249 250 251 252 254 255 256 257 257 257 258 258 259 260 260 260 260 260 260 260 260 260 261 261 261 262 261 261
268 265 261 257 255 254 254 254 254 254 255 255 255 255 255 254 253 251 249 249 249 248 248 248 248 248 249 250 252 253 254 255 255 256 256 257 258 259 259 259 259 259 259 259 259 259 260 260 260 260 260 261
273 269 264 259 256 255 254 254 254 254 254 255 255 255 254 253 253 252 250 249 249 248 248 248 248 247 248 249 250 251 252 253 253 255 256 256 257 258 258 259 258 258 258 258 259 259 259 258 258 258 258 259
273 270 266 261 258 256 254 254 254 254 254 254 254 254 255 254 252 251 250 250 250 249 249 249 248 248 248 249 249 250 251 252 253 253 254 255 256 257 257 257 257 258 258 258 258 258 257 256 256 257 257 257
269 267 265 262 260 257 255 255 255 255 254 255 256 256 256 256 255 254 253 253 252 252 252 251 251 251 251 251 251 251 252 252 253 253 254 254 255 256 256 256 256 256 257 257 258 258 258 257 256 256 256 257
264 263 263 263 262 261 260 259 259 258 257 257 258 259 259 258 258 258 258 257 256 256 255 255 254 254 253 253 253 254 254 254 255 255 255 256 256 256 256 256 255 255 255 255 256 257 258 258 257 256 255 256
260 259 260 262 263 264 264 263 263 263 262 262 262 262 261 261 261 261 260 260 259 259 258 258 257 257 256 256 256 256 256 256 256 257 257 257 257 256 257 256 255 254 254 254 254 255 256 257 258 258 258 256
256 256 257 259 260 261 262 262 263 264 265 265 266 266 265 265 265 264 264 263 263 262 261 261 260 259 259 258 258 258 258 258 258 258 258 257 257 257 257 257 257 256 255 254 254 254 255 256 258 259 259 258
253 254 255 257 258 260 261 262 264 265 266 266 267 267 267 267 267 267 267 266 266 265 264 264 263 262 261 260 260 259 259 259 258 258 258 258 258 258 257 258 259 258 257 256 256 256 256 256 257 258 259 259